User: anonymous   Login
Location: Unspecified
(0.0000°N, 0.0000°E)
Time: 06:51:50
(UTC+00:00)
Language:

UNISAT 5 - Orbit

View from above orbital plane
View from above orbital plane
View from above satellite
View from above satellite

Ground track
Ground track

The orbit data is extracted from the following two-line orbital elements,

1 39421U 13066F   17087.78872103 +.00001021 +00000-0 +11795-3 0  9994
2 39421 097.6522 147.7836 0032665 141.7360 218.6148 14.87311964181703
Epoch (UTC): 28 March 2017 18:55:45
Eccentricity: 0.0032665
inclination: 97.6522°
perigee height: 583 km
apogee height: 629 km
right ascension of ascending node: 147.7836°
argument of perigee: 141.7360°
revolutions per day: 14.87311964
mean anomaly at epoch: 218.6148°
orbit number at epoch: 18170

The dashed part of the orbit path shows where the satellite is in the earth's shadow,  

DLR